Provincetown, Massachusetts, United States (02657)
Lat: 42.06N, Lon: 70.18W
Wx Zone: MAZ022
Local Info
Past Weather Observations for Today

NOTE: This archive is for the closest National Weather Service station to Provincetown. Information may differ from the station used for current weather conditions.

Click here for Long-term Archive

Time Weather Temperature Dewpoint Humidity Pressure Winds Precip Visibility
22:56
Partly Cloudy
75°F / 24°C 72°F / 22°C 89% 29.89 in
(1012 mb)
SW 5.8 mph
(SW 9 kph)
- 7SM
22:18
Partly Cloudy
75°F / 24°C 72°F / 22°C 89% 29.89 in
(1012 mb)
SSW 10.4 mph
(SSW 17 kph)
- 8SM
21:56
Mostly Cloudy
75°F / 24°C 72°F / 22°C 89% 29.89 in
(1012 mb)
SSW 11.5 mph
(SSW 19 kph)
- 8SM
21:15
Partly Cloudy
77°F / 25°C 72°F / 22°C 83% 29.89 in
(1012 mb)
SSW 11.5 mph
(SSW 19 kph)
- 9SM
20:56
Mostly Cloudy
79°F / 26°C 72°F / 22°C 79% 29.89 in
(1012 mb)
SSW 13.8 mph
(SSW 22 kph)
- 9SM
20:53
Overcast
79°F / 26°C 72°F / 22°C 79% 29.89 in
(1012 mb)
SSW 11.5 mph
(SSW 19 kph)
- 9SM
20:43
Overcast
77°F / 25°C 73°F / 23°C 89% 29.89 in
(1012 mb)
SSW 10.4 mph
(SSW 17 kph)
- 7SM
19:56
Overcast
77°F / 25°C 73°F / 23°C 89% 29.86 in
(1011 mb)
SW 10.4 mph
(SW 17 kph)
- 7SM
18:56
Partly Cloudy
77°F / 25°C 73°F / 23°C 89% 29.83 in
(1010 mb)
SW 12.7 mph
(SW 20 kph)
- 7SM
17:56
Mostly Cloudy
81°F / 27°C 68°F / 20°C 66% 29.83 in
(1010 mb)
SSW 17.3 mph
(SSW 28 kph)
- 10SM
16:56
Partly Cloudy
82°F / 28°C 66°F / 19°C 58% 29.83 in
(1010 mb)
SW 15 mph
(SW 24 kph)
- 10SM
15:56
Clear
82°F / 28°C 72°F / 22°C 70% 29.83 in
(1010 mb)
SW 19.6 mph
(SW 32 kph)
- 10SM
14:56
Partly Cloudy
82°F / 28°C 73°F / 23°C 74% 29.8 in
(1009 mb)
SSE 17.3 mph
(SSE 28 kph)
- 7SM
13:56
Fair
82°F / 28°C 73°F / 23°C 74% 29.83 in
(1010 mb)
Calm - 8SM
12:56
Mostly Cloudy
81°F / 27°C 72°F / 22°C 74% 29.86 in
(1011 mb)
Calm - 10SM
11:56
Clear
79°F / 26°C 70°F / 21°C 74% 29.86 in
(1011 mb)
Calm - 10SM
10:56
Clear
79°F / 26°C 70°F / 21°C 74% 29.89 in
(1012 mb)
Calm - 10SM
09:56
Clear
75°F / 24°C 70°F / 21°C 83% 29.89 in
(1012 mb)
Calm 0.00 in
(0.00 mm)
10SM
09:19
Partly Cloudy
72°F / 22°C 68°F / 20°C 88% 29.89 in
(1012 mb)
S 4.6 mph
(S 7 kph)
0.00 in
(0.00 mm)
10SM
09:08
Partly Cloudy
Thunder Storms
72°F / 22°C 70°F / 21°C 94% 29.89 in
(1012 mb)
Variable 4.6 mph
(Variable 7 kph)
0.00 in
(0.00 mm)
10SM
08:56
Mostly Cloudy
Thunder Storms
70°F / 21°C 66°F / 19°C 88% 29.89 in
(1012 mb)
Variable 4.6 mph
(Variable 7 kph)
0.00 in
(0.00 mm)
10SM
08:41
Mostly Cloudy
Thunder Storms
72°F / 22°C 66°F / 19°C 83% 29.89 in
(1012 mb)
S 6.9 mph
(S 11 kph)
0.00 in
(0.00 mm)
10SM
07:56
Mostly Cloudy
70°F / 21°C 66°F / 19°C 88% 29.89 in
(1012 mb)
ESE 3.5 mph
(ESE 6 kph)
0.27 in
(6.86 mm)
10SM
07:26
Mostly Cloudy
Fog And Mist
66°F / 19°C 64°F / 18°C 94% 29.89 in
(1012 mb)
N 3.5 mph
(N 6 kph)
0.27 in
(6.86 mm)
5SM
07:09
Overcast
Fog And Mist
66°F / 19°C 64°F / 18°C 94% 29.92 in
(1013 mb)
N 5.8 mph
(N 9 kph)
0.27 in
(6.86 mm)
5SM
07:00
Overcast
Thunder Storms
66°F / 19°C 64°F / 18°C 94% 29.92 in
(1013 mb)
Variable 4.6 mph
(Variable 7 kph)
0.09 in
(2.29 mm)
1 3/4SM
06:56
Overcast
Thunder Storms
68°F / 20°C 63°F / 17°C 83% 29.92 in
(1013 mb)
SSW 11.5 mph
(SSW 19 kph)
0.13 in
(3.30 mm)
3SM
06:50
Overcast
Thunder Storms
68°F / 20°C 63°F / 17°C 83% 29.92 in
(1013 mb)
SSW 13.8 mph
(SSW 22 kph)
0.06 in
(1.52 mm)
3SM
06:42
Overcast
Thunder Storms
77°F / 25°C 73°F / 23°C 89% 29.86 in
(1011 mb)
SSW 29.9 mph
(SSW 48 kph)
- 7SM
05:56
Overcast
77°F / 25°C 73°F / 23°C 89% 29.83 in
(1010 mb)
SW 12.7 mph
(SW 20 kph)
- 7SM
04:56
Overcast
75°F / 24°C 73°F / 23°C 94% 29.86 in
(1011 mb)
SW 12.7 mph
(SW 20 kph)
- 7SM
04:51
Overcast
75°F / 24°C 73°F / 23°C 94% 29.86 in
(1011 mb)
SW 16.1 mph
(SW 26 kph)
- 7SM
03:56
Mostly Cloudy
75°F / 24°C 72°F / 22°C 89% 29.83 in
(1010 mb)
SW 13.8 mph
(SW 22 kph)
- 10SM
02:56
Overcast
77°F / 25°C 73°F / 23°C 89% 29.83 in
(1010 mb)
SW 12.7 mph
(SW 20 kph)
- 10SM
01:56
Overcast
79°F / 26°C 73°F / 23°C 84% 29.83 in
(1010 mb)
SW 16.1 mph
(SW 26 kph)
- 10SM
01:29
Overcast
77°F / 25°C 73°F / 23°C 89% 29.83 in
(1010 mb)
SW 12.7 mph
(SW 20 kph)
- 9SM
00:56
Overcast
77°F / 25°C 73°F / 23°C 89% 29.83 in
(1010 mb)
SW 13.8 mph
(SW 22 kph)
- 9SM
Time Weather Temperature Dewpoint Humidity Pressure Winds Precip Visibility


Weather for websites

WeatherForYou.com, LLC is not responsible for any damages or problems caused by this service. Current weather conditions are obtained from the closest station including government and personal stations which may have varying degrees of accuracy. Weather forecasts are derived from the NOAA NDFD. Like all things, this site belongs to Jesus Christ... He just trusts us to maintain it. If you have any questions or comments email webmaster@weatherforyou.com

Copyright © 2015, WeatherForYou.com LLC. All rights reserved.